| time (UTC) | temp F | wind direction | speed knots | gust knots | rain 1hr in | rain 24hr in | rain mn in | humidity % | barometer mb |
| 20260505140332 | 70 | 208 | 0.0 | 8.7 | 0.00 | 0.00 | 0.00 | 60 | 1015.0 |
| 20260505130301 | 67 | 360 | 0.9 | 11.3 | 0.00 | 0.00 | 0.00 | 64 | 1015.3 |
| 20260505124801 | 66 | 360 | 1.7 | 8.7 | 0.00 | 0.00 | 0.00 | 65 | 1015.1 |
| 20260505124331 | 66 | 360 | 6.1 | 7.0 | 0.00 | 0.00 | 0.00 | 66 | 1015.0 |
| 20260505123801 | 65 | 360 | 0.0 | 7.0 | 0.00 | 0.00 | 0.00 | 65 | 1015.0 |
| 20260505123301 | 65 | 360 | 2.6 | 7.8 | 0.00 | 0.00 | 0.00 | 66 | 1015.1 |
| 20260505122801 | 65 | 360 | 0.0 | 7.8 | 0.00 | 0.00 | 0.00 | 66 | 1015.0 |
| 20260505122331 | 65 | 360 | 3.5 | 7.8 | 0.00 | 0.00 | 0.00 | 66 | 1015.0 |
| 20260505121831 | 65 | 360 | 0.0 | 7.8 | 0.00 | 0.00 | 0.00 | 66 | 1014.9 |
| 20260505121301 | 64 | 360 | 3.5 | 7.8 | 0.00 | 0.00 | 0.00 | 66 | 1014.9 |
| 20260505120801 | 64 | 360 | 3.5 | 9.6 | 0.00 | 0.00 | 0.00 | 67 | 1015.0 |
| 20260505120301 | 64 | 360 | 0.9 | 9.6 | 0.00 | 0.00 | 0.00 | 67 | 1015.0 |
| 20260505115831 | 64 | 360 | 4.3 | 8.7 | 0.00 | 0.00 | 0.00 | 67 | 1015.0 |
| 20260505115301 | 64 | 360 | 4.3 | 8.7 | 0.00 | 0.00 | 0.00 | 68 | 1015.0 |
| 20260505114831 | 63 | 360 | 0.0 | 6.1 | 0.00 | 0.00 | 0.00 | 69 | 1014.9 |
| 20260505113801 | 63 | 360 | 3.5 | 8.7 | 0.00 | 0.00 | 0.00 | 69 | 1014.6 |
| 20260505112801 | 63 | 360 | 1.7 | 7.0 | 0.00 | 0.00 | 0.00 | 70 | 1014.7 |
| 20260505112331 | 63 | 360 | 3.5 | 7.8 | 0.00 | 0.00 | 0.00 | 70 | 1014.6 |
| 20260505111301 | 62 | 360 | 0.9 | 6.1 | 0.00 | 0.00 | 0.00 | 70 | 1014.6 |
| 20260505110801 | 62 | 360 | 3.5 | 8.7 | 0.00 | 0.00 | 0.00 | 70 | 1014.6 |
| 20260505110301 | 62 | 360 | 0.0 | 8.7 | 0.00 | 0.00 | 0.00 | 69 | 1014.5 |
| 20260505101801 | 62 | 360 | 6.1 | 6.1 | 0.00 | 0.00 | 0.00 | 71 | 1014.3 |
| 20260505101301 | 62 | 360 | 0.9 | 5.2 | 0.00 | 0.00 | 0.00 | 71 | 1014.2 |
| 20260505100801 | 62 | 360 | 0.0 | 7.0 | 0.00 | 0.00 | 0.00 | 71 | 1014.2 |
| 20260505100331 | 62 | 360 | 0.9 | 7.0 | 0.00 | 0.00 | 0.00 | 71 | 1014.2 |
| 20260505095801 | 62 | 360 | 0.0 | 5.2 | 0.00 | 0.00 | 0.00 | 71 | 1014.1 |
| 20260505095301 | 62 | 360 | 0.0 | 7.0 | 0.00 | 0.00 | 0.00 | 70 | 1013.9 |
| 20260505094331 | 62 | 360 | 1.7 | 9.6 | 0.00 | 0.00 | 0.00 | 70 | 1013.9 |
| 20260505093801 | 62 | 360 | 4.3 | 8.7 | 0.00 | 0.00 | 0.00 | 70 | 1013.9 |
| 20260505093301 | 62 | 360 | 0.0 | 5.2 | 0.00 | 0.00 | 0.00 | 71 | 1013.9 |
| 20260505092801 | 63 | 360 | 0.0 | 6.1 | 0.00 | 0.00 | 0.00 | 70 | 1013.8 |
| 20260505092331 | 63 | 360 | 0.9 | 6.1 | 0.00 | 0.00 | 0.00 | 70 | 1013.7 |
| 20260505091801 | 63 | 360 | 4.3 | 6.1 | 0.00 | 0.00 | 0.00 | 70 | 1013.8 |
| 20260505091301 | 63 | 360 | 1.7 | 6.1 | 0.00 | 0.00 | 0.00 | 70 | 1013.7 |
| 20260505090801 | 63 | 360 | 4.3 | 6.1 | 0.00 | 0.00 | 0.00 | 70 | 1013.7 |
| 20260505090301 | 63 | 360 | 3.5 | 6.1 | 0.00 | 0.00 | 0.00 | 70 | 1013.7 |
| 20260505085831 | 63 | 360 | 1.7 | 6.1 | 0.00 | 0.00 | 0.00 | 69 | 1013.7 |
| 20260505085301 | 63 | 360 | 1.7 | 7.8 | 0.00 | 0.00 | 0.00 | 69 | 1013.5 |
| 20260505084801 | 63 | 360 | 4.3 | 7.8 | 0.00 | 0.00 | 0.00 | 69 | 1013.6 |
| 20260505083831 | 63 | 360 | 5.2 | 7.8 | 0.00 | 0.00 | 0.00 | 68 | 1013.7 |
| 20260505083301 | 63 | 360 | 0.9 | 5.2 | 0.00 | 0.00 | 0.00 | 68 | 1013.6 |
| 20260505082331 | 64 | 360 | 0.9 | 7.0 | 0.00 | 0.00 | 0.00 | 68 | 1013.7 |
| 20260505081801 | 64 | 360 | 4.3 | 6.1 | 0.00 | 0.00 | 0.00 | 68 | 1013.7 |
| 20260505081331 | 64 | 360 | 0.0 | 6.1 | 0.00 | 0.00 | 0.00 | 68 | 1013.6 |
| 20260505080801 | 64 | 360 | 1.7 | 7.0 | 0.00 | 0.00 | 0.00 | 68 | 1013.6 |
| 20260505080301 | 64 | 360 | 4.3 | 7.0 | 0.00 | 0.00 | 0.00 | 67 | 1013.5 |
| 20260505075801 | 64 | 360 | 1.7 | 7.8 | 0.00 | 0.00 | 0.00 | 68 | 1013.4 |
| 20260505075301 | 64 | 360 | 4.3 | 7.8 | 0.00 | 0.00 | 0.00 | 68 | 1013.3 |
| 20260505074831 | 64 | 360 | 4.3 | 7.8 | 0.00 | 0.00 | 0.00 | 68 | 1013.3 |
| 20260505074301 | 64 | 360 | 1.7 | 7.8 | 0.00 | 0.00 | 0.00 | 67 | 1013.2 |
| 20260505073801 | 64 | 360 | 1.7 | 8.7 | 0.00 | 0.00 | 0.00 | 67 | 1013.1 |
| 20260505072301 | 64 | 360 | 4.3 | 7.8 | 0.00 | 0.00 | 0.00 | 67 | 1013.2 |
| 20260505071801 | 64 | 360 | 3.5 | 8.7 | 0.00 | 0.00 | 0.00 | 67 | 1013.2 |
| 20260505070801 | 65 | 360 | 5.2 | 7.8 | 0.00 | 0.00 | 0.00 | 66 | 1013.1 |
| 20260505070300 | 65 | 360 | 1.7 | 8.7 | 0.00 | 0.00 | 0.00 | 66 | 1013.1 |
| 20260505065831 | 65 | 360 | 1.7 | 8.7 | 0.00 | 0.00 | 0.00 | 66 | 1013.0 |
| 20260505065301 | 65 | 360 | 1.7 | 7.0 | 0.00 | 0.00 | 0.00 | 66 | 1013.1 |
| 20260505064800 | 65 | 360 | 3.5 | 7.8 | 0.00 | 0.00 | 0.00 | 65 | 1013.1 |
| 20260505063800 | 65 | 360 | 3.5 | 9.6 | 0.00 | 0.00 | 0.00 | 65 | 1013.0 |
| 20260505063301 | 65 | 360 | 0.0 | 6.1 | 0.00 | 0.00 | 0.00 | 65 | 1013.0 |
| 20260505062801 | 65 | 360 | 3.5 | 7.0 | 0.00 | 0.00 | 0.00 | 65 | 1013.1 |
| 20260505062301 | 65 | 360 | 1.7 | 7.0 | 0.00 | 0.00 | 0.00 | 65 | 1013.1 |
| 20260505061800 | 65 | 360 | 0.9 | 5.2 | 0.00 | 0.00 | 0.00 | 65 | 1013.1 |
| 20260505061301 | 65 | 360 | 0.0 | 5.2 | 0.00 | 0.00 | 0.00 | 65 | 1013.2 |
| 20260505055800 | 65 | 360 | 1.7 | 9.6 | 0.00 | 0.00 | 0.00 | 65 | 1013.2 |
| 20260505055301 | 65 | 360 | 0.9 | 9.6 | 0.00 | 0.00 | 0.00 | 64 | 1013.2 |
| 20260505054800 | 66 | 360 | 7.0 | 9.6 | 0.00 | 0.00 | 0.00 | 65 | 1013.2 |
| 20260505054301 | 66 | 360 | 2.6 | 9.6 | 0.00 | 0.00 | 0.00 | 64 | 1013.2 |
| 20260505053830 | 66 | 360 | 0.0 | 8.7 | 0.00 | 0.00 | 0.00 | 65 | 1013.2 |
| 20260505053300 | 66 | 360 | 0.9 | 8.7 | 0.00 | 0.00 | 0.00 | 64 | 1013.2 |
| 20260505052300 | 66 | 360 | 3.5 | 10.4 | 0.00 | 0.00 | 0.00 | 65 | 1013.2 |
| 20260505051830 | 66 | 360 | 7.0 | 10.4 | 0.00 | 0.00 | 0.00 | 64 | 1013.3 |
| 20260505051330 | 66 | 360 | 2.6 | 12.2 | 0.00 | 0.00 | 0.00 | 64 | 1013.3 |
| 20260505050800 | 66 | 360 | 1.7 | 12.2 | 0.00 | 0.00 | 0.00 | 65 | 1013.4 |
| 20260505050300 | 66 | 360 | 3.5 | 7.8 | 0.00 | 0.00 | 0.00 | 65 | 1013.3 |
| 20260505041330 | 67 | 360 | 4.3 | 8.7 | 0.00 | 0.00 | 0.00 | 64 | 1013.1 |
| 20260505040300 | 67 | 360 | 5.2 | 10.4 | 0.00 | 0.00 | 0.00 | 64 | 1013.0 |
| 20260505035830 | 67 | 360 | 6.1 | 10.4 | 0.00 | 0.00 | 0.00 | 64 | 1013.0 |
| 20260505035330 | 67 | 360 | 4.3 | 12.2 | 0.00 | 0.00 | 0.00 | 64 | 1013.1 |
| 20260505034830 | 67 | 360 | 6.1 | 12.2 | 0.00 | 0.00 | 0.00 | 64 | 1013.1 |
| 20260505034330 | 67 | 360 | 9.6 | 10.4 | 0.00 | 0.00 | 0.00 | 64 | 1013.1 |
| 20260505033800 | 67 | 360 | 5.2 | 13.0 | 0.00 | 0.00 | 0.00 | 64 | 1013.0 |
| 20260505033330 | 67 | 360 | 6.1 | 13.0 | 0.00 | 0.00 | 0.00 | 65 | 1013.0 |
| 20260505032830 | 68 | 360 | 4.3 | 11.3 | 0.00 | 0.00 | 0.00 | 65 | 1013.0 |
| 20260505032330 | 68 | 360 | 6.1 | 11.3 | 0.00 | 0.00 | 0.00 | 65 | 1012.9 |
| 20260505031830 | 68 | 360 | 6.1 | 11.3 | 0.00 | 0.00 | 0.00 | 65 | 1013.0 |
| 20260505031330 | 68 | 360 | 6.1 | 11.3 | 0.00 | 0.00 | 0.00 | 65 | 1013.0 |
| 20260505030830 | 68 | 360 | 1.7 | 10.4 | 0.00 | 0.00 | 0.00 | 66 | 1013.0 |
| 20260505030330 | 68 | 360 | 5.2 | 10.4 | 0.00 | 0.00 | 0.00 | 65 | 1013.0 |
| 20260505025830 | 68 | 360 | 4.3 | 9.6 | 0.00 | 0.00 | 0.00 | 67 | 1012.9 |
| 20260505024830 | 68 | 360 | 1.7 | 10.4 | 0.00 | 0.00 | 0.00 | 67 | 1012.9 |
| 20260505024330 | 68 | 360 | 4.3 | 10.4 | 0.00 | 0.00 | 0.00 | 68 | 1012.8 |
| 20260505023330 | 68 | 360 | 0.9 | 7.0 | 0.00 | 0.00 | 0.00 | 68 | 1012.7 |
| 20260505022830 | 68 | 360 | 0.9 | 7.0 | 0.00 | 0.00 | 0.00 | 69 | 1012.7 |
| 20260505022330 | 68 | 360 | 4.3 | 7.0 | 0.00 | 0.00 | 0.00 | 69 | 1012.7 |
| 20260505021830 | 68 | 360 | 0.9 | 4.3 | 0.00 | 0.00 | 0.00 | 69 | 1012.7 |
| 20260505021330 | 68 | 360 | 0.0 | 4.3 | 0.00 | 0.00 | 0.00 | 69 | 1012.7 |
| 20260505020830 | 68 | 360 | 0.0 | 5.2 | 0.00 | 0.00 | 0.00 | 69 | 1012.6 |
| 20260505015830 | 68 | 360 | 0.0 | 7.8 | 0.00 | 0.00 | 0.00 | 69 | 1012.5 |
| 20260505015330 | 69 | 360 | 0.0 | 3.5 | 0.00 | 0.00 | 0.00 | 68 | 1012.3 |
| 20260505014830 | 69 | 360 | 0.0 | 3.5 | 0.00 | 0.00 | 0.00 | 67 | 1012.4 |
| 20260505014330 | 69 | 360 | 0.0 | 2.6 | 0.00 | 0.00 | 0.00 | 67 | 1012.4 |
| 20260505013830 | 69 | 360 | 0.0 | 3.5 | 0.00 | 0.00 | 0.00 | 67 | 1012.4 |
| 20260505013330 | 69 | 360 | 0.9 | 3.5 | 0.00 | 0.00 | 0.00 | 66 | 1012.5 |
| 20260505012830 | 69 | 360 | 0.0 | 3.5 | 0.00 | 0.00 | 0.00 | 65 | 1012.5 |
| 20260505012330 | 69 | 360 | 0.0 | 6.1 | 0.00 | 0.00 | 0.00 | 63 | 1012.3 |
| 20260505011830 | 69 | 360 | 0.0 | 6.1 | 0.00 | 0.00 | 0.00 | 61 | 1012.1 |
| 20260505010830 | 70 | 360 | 0.0 | 4.3 | 0.00 | 0.00 | 0.00 | 60 | 1012.1 |
| 20260505010330 | 70 | 360 | 0.0 | 0.9 | 0.00 | 0.00 | 0.00 | 64 | 1012.0 |
| 20260505005830 | 70 | 360 | 0.0 | 1.7 | 0.00 | 0.00 | 0.00 | 62 | 1011.8 |
| 20260505005330 | 71 | 360 | 0.0 | 2.6 | 0.00 | 0.00 | 0.00 | 60 | 1011.9 |
| 20260505004830 | 71 | 360 | 0.0 | 2.6 | 0.00 | 0.00 | 0.00 | 59 | 1011.8 |
| 20260505004300 | 71 | 360 | 0.0 | 1.7 | 0.00 | 0.00 | 0.00 | 57 | 1011.7 |
| 20260505003830 | 72 | 248 | 0.0 | 3.5 | 0.00 | 0.00 | 0.00 | 56 | 1011.6 |
| 20260505003330 | 72 | 250 | 0.9 | 3.5 | 0.00 | 0.00 | 0.00 | 54 | 1011.6 |
| 20260505002830 | 73 | 244 | 0.0 | 4.3 | 0.00 | 0.00 | 0.00 | 54 | 1011.6 |
| 20260505002300 | 73 | 245 | 0.9 | 5.2 | 0.00 | 0.00 | 0.00 | 52 | 1011.5 |
| 20260505001830 | 73 | 227 | 3.5 | 6.1 | 0.00 | 0.00 | 0.00 | 46 | 1011.3 |
| 20260505001330 | 74 | 246 | 0.0 | 6.1 | 0.00 | 0.00 | 0.00 | 43 | 1011.4 |
| 20260505000800 | 74 | 243 | 1.7 | 7.0 | 0.00 | 0.00 | 0.00 | 43 | 1011.4 |
| 20260504235830 | 74 | 244 | 2.6 | 7.0 | 0.00 | 0.00 | 0.00 | 42 | 1011.3 |
| 20260504235330 | 74 | 217 | 0.9 | 7.0 | 0.00 | 0.00 | 0.00 | 42 | 1011.3 |
| 20260504234830 | 75 | 236 | 1.7 | 7.0 | 0.00 | 0.00 | 0.00 | 41 | 1011.2 |
| 20260504234330 | 75 | 198 | 0.0 | 6.1 | 0.00 | 0.00 | 0.00 | 42 | 1011.1 |
| 20260504233830 | 75 | 208 | 0.0 | 7.0 | 0.00 | 0.00 | 0.00 | 41 | 1011.1 |
| 20260504233329 | 75 | 267 | 0.9 | 7.0 | 0.00 | 0.00 | 0.00 | 40 | 1011.1 |
| 20260504232829 | 75 | 221 | 1.7 | 7.8 | 0.00 | 0.00 | 0.00 | 39 | 1011.0 |
| 20260504232330 | 75 | 241 | 1.7 | 7.8 | 0.00 | 0.00 | 0.00 | 39 | 1010.9 |
| 20260504231330 | 76 | 259 | 0.0 | 7.8 | 0.00 | 0.00 | 0.00 | 40 | 1010.8 |
| 20260504230830 | 76 | 242 | 4.3 | 7.8 | 0.00 | 0.00 | 0.00 | 39 | 1010.8 |
| 20260504230329 | 76 | 216 | 0.9 | 7.8 | 0.00 | 0.00 | 0.00 | 39 | 1011.0 |
| 20260504225830 | 76 | 229 | 0.9 | 7.8 | 0.00 | 0.00 | 0.00 | 38 | 1011.0 |
| 20260504225329 | 77 | 236 | 0.9 | 7.8 | 0.00 | 0.00 | 0.00 | 38 | 1011.0 |
| 20260504224830 | 77 | 210 | 2.6 | 7.8 | 0.00 | 0.00 | 0.00 | 38 | 1011.0 |
| 20260504224330 | 77 | 246 | 3.5 | 8.7 | 0.00 | 0.00 | 0.00 | 38 | 1011.0 |
| 20260504223829 | 77 | 228 | 0.9 | 8.7 | 0.00 | 0.00 | 0.00 | 37 | 1010.9 |
| 20260504223330 | 77 | 240 | 5.2 | 7.8 | 0.00 | 0.00 | 0.00 | 37 | 1010.9 |
| 20260504222829 | 77 | 248 | 0.0 | 9.6 | 0.00 | 0.00 | 0.00 | 38 | 1010.9 |
| 20260504222329 | 77 | 264 | 1.7 | 10.4 | 0.00 | 0.00 | 0.00 | 37 | 1010.9 |
| 20260504221329 | 77 | 246 | 0.9 | 7.0 | 0.00 | 0.00 | 0.00 | 37 | 1011.0 |
| 20260504220829 | 77 | 260 | 1.7 | 7.0 | 0.00 | 0.00 | 0.00 | 38 | 1011.1 |
| 20260504215829 | 78 | 219 | 0.9 | 9.6 | 0.00 | 0.00 | 0.00 | 36 | 1010.9 |
| 20260504215329 | 79 | 199 | 5.2 | 9.6 | 0.00 | 0.00 | 0.00 | 35 | 1011.0 |
| 20260504214829 | 79 | 238 | 2.6 | 8.7 | 0.00 | 0.00 | 0.00 | 35 | 1011.0 |
| 20260504214329 | 79 | 225 | 6.1 | 13.0 | 0.00 | 0.00 | 0.00 | 34 | 1011.1 |
| 20260504213830 | 79 | 196 | 4.3 | 13.0 | 0.00 | 0.00 | 0.00 | 34 | 1011.1 |
| 20260504212329 | 79 | 246 | 0.9 | 10.4 | 0.00 | 0.00 | 0.00 | 34 | 1011.1 |
| 20260504211829 | 79 | 252 | 3.5 | 10.4 | 0.00 | 0.00 | 0.00 | 32 | 1011.1 |
| 20260504210829 | 79 | 252 | 4.3 | 7.0 | 0.00 | 0.00 | 0.00 | 34 | 1011.1 |
| 20260504210329 | 79 | 233 | 1.7 | 9.6 | 0.00 | 0.00 | 0.00 | 35 | 1011.1 |
| 20260504205829 | 79 | 261 | 3.5 | 15.6 | 0.00 | 0.00 | 0.00 | 34 | 1011.1 |
| 20260504204829 | 80 | 234 | 4.3 | 10.4 | 0.00 | 0.00 | 0.00 | 33 | 1011.0 |
| 20260504204329 | 80 | 241 | 3.5 | 10.4 | 0.00 | 0.00 | 0.00 | 35 | 1011.0 |
| 20260504203329 | 80 | 240 | 0.9 | 9.6 | 0.00 | 0.00 | 0.00 | 34 | 1011.1 |
| 20260504201829 | 79 | 232 | 0.0 | 10.4 | 0.00 | 0.00 | 0.00 | 33 | 1011.2 |
| 20260504201329 | 79 | 240 | 7.8 | 10.4 | 0.00 | 0.00 | 0.00 | 35 | 1011.4 |
| 20260504200329 | 79 | 203 | 7.0 | 10.4 | 0.00 | 0.00 | 0.00 | 34 | 1011.3 |
| 20260504195829 | 79 | 238 | 1.7 | 12.2 | 0.00 | 0.00 | 0.00 | 34 | 1011.2 |
| 20260504195329 | 80 | 232 | 3.5 | 12.2 | 0.00 | 0.00 | 0.00 | 34 | 1011.3 |
| 20260504194829 | 80 | 247 | 5.2 | 8.7 | 0.00 | 0.00 | 0.00 | 35 | 1011.4 |
| 20260504194329 | 80 | 244 | 0.0 | 9.6 | 0.00 | 0.00 | 0.00 | 35 | 1011.5 |
| 20260504193329 | 80 | 217 | 7.0 | 8.7 | 0.00 | 0.00 | 0.00 | 34 | 1011.8 |
| 20260504192829 | 80 | 209 | 2.6 | 7.0 | 0.00 | 0.00 | 0.00 | 33 | 1011.8 |
| 20260504191329 | 79 | 256 | 0.0 | 7.8 | 0.00 | 0.00 | 0.00 | 37 | 1011.9 |
| 20260504190829 | 79 | 248 | 0.0 | 6.1 | 0.00 | 0.00 | 0.00 | 36 | 1012.2 |
| 20260504185829 | 79 | 259 | 4.3 | 6.1 | 0.00 | 0.00 | 0.00 | 36 | 1012.2 |
| 20260504184829 | 78 | 231 | 3.5 | 5.2 | 0.00 | 0.00 | 0.00 | 38 | 1012.4 |
| 20260504184329 | 78 | 269 | 0.9 | 5.2 | 0.00 | 0.00 | 0.00 | 38 | 1012.5 |
| 20260504183829 | 77 | 236 | 3.5 | 7.8 | 0.00 | 0.00 | 0.00 | 38 | 1012.6 |
| 20260504182829 | 76 | 288 | 2.6 | 6.1 | 0.00 | 0.00 | 0.00 | 40 | 1012.8 |
| 20260504182329 | 76 | 234 | 0.0 | 11.3 | 0.00 | 0.00 | 0.00 | 40 | 1012.8 |
| 20260504181829 | 76 | 278 | 0.0 | 11.3 | 0.00 | 0.00 | 0.00 | 38 | 1012.9 |
| 20260504181329 | 76 | 257 | 0.0 | 10.4 | 0.00 | 0.00 | 0.00 | 38 | 1012.8 |
| 20260504180829 | 76 | 215 | 3.5 | 13.0 | 0.00 | 0.00 | 0.00 | 38 | 1012.9 |
| 20260504180329 | 76 | 223 | 3.5 | 13.0 | 0.00 | 0.00 | 0.00 | 36 | 1012.9 |
| 20260504175829 | 77 | 242 | 1.7 | 11.3 | 0.00 | 0.00 | 0.00 | 37 | 1013.0 |
| 20260504175329 | 78 | 223 | 5.2 | 11.3 | 0.00 | 0.00 | 0.00 | 37 | 1012.9 |
| 20260504173829 | 78 | 219 | 7.0 | 7.8 | 0.00 | 0.00 | 0.00 | 38 | 1013.1 |
| 20260504173329 | 78 | 223 | 3.5 | 8.7 | 0.00 | 0.00 | 0.00 | 38 | 1013.1 |
| 20260504172829 | 78 | 262 | 0.0 | 8.7 | 0.00 | 0.00 | 0.00 | 38 | 1013.2 |
| 20260504172329 | 78 | 258 | 0.0 | 7.8 | 0.00 | 0.00 | 0.00 | 38 | 1013.2 |
| 20260504171829 | 78 | 267 | 0.0 | 7.8 | 0.00 | 0.00 | 0.00 | 38 | 1013.3 |
| 20260504171329 | 78 | 207 | 0.0 | 7.8 | 0.00 | 0.00 | 0.00 | 40 | 1013.5 |
| 20260504170829 | 78 | 255 | 3.5 | 7.8 | 0.00 | 0.00 | 0.00 | 40 | 1013.4 |
| 20260504170329 | 77 | 236 | 1.7 | 7.8 | 0.00 | 0.00 | 0.00 | 39 | 1013.5 |
| 20260504160329 | 74 | 248 | 3.5 | 8.7 | 0.00 | 0.00 | 0.00 | 44 | 1014.3 |
| 20260504150329 | 71 | 280 | 3.5 | 7.8 | 0.00 | 0.00 | 0.00 | 48 | 1014.7 |